Temperature
17 17 17 17 17 17 17 17 17 17 17 18 18 18 18 18 17 17 17 17 17 17 16 16 16 16 16 16 16 15 15 15 15 15 15 15 15 15
17 17 17 17 17 17 17 17 17 17 17 17 17 17 17 17 17 17 17 17 17 16 16 16 16 16 16 16 15 15 15 15 15 15 15 15 15 14
17 17 17 17 17 17 17 17 17 17 17 17 17 17 17 17 17 17 17 16 16 16 16 16 16 16 16 15 15 15 15 15 15 15 15 15 14 14
17 17 17 17 17 17 17 17 17 17 17 16 16 16 16 17 16 16 16 16 16 16 16 15 15 15 15 15 15 15 15 15 14 14 14 14 14 14
16 16 16 16 16 16 16 16 16 16 16 16 16 16 16 16 16 16 16 16 15 15 15 15 15 15 15 14 14 14 14 14 14 14 14 14 14 13
16 16 16 16 16 16 16 16 16 16 16 16 16 15 15 15 15 15 15 15 15 15 14 14 14 14 14 14 14 14 14 14 13 13 13 13 13 13
15 15 15 15 15 15 15 15 15 15 15 15 15 15 15 15 15 15 14 14 14 14 14 14 13 13 13 13 13 13 13 13 13 13 12 12 12 12
15 15 15 15 15 15 15 15 15 14 14 14 14 14 14 14 14 14 13 13 13 13 13 13 13 13 13 12 12 12 12 12 12 12 12 12 12 11
15 15 14 14 14 14 14 14 14 14 13 13 13 13 13 13 13 13 13 12 12 12 12 12 12 12 12 12 11 11 11 11 11 11 11 11 11 11
14 14 14 14 14 14 14 13 13 13 13 13 13 12 12 12 12 12 12 12 11 11 11 11 11 11 11 11 11 11 11 11 11 11 11 10 10 10
13 13 13 13 13 13 13 13 13 12 12 12 12 12 12 11 11 11 11 11 11 11 10 10 10 10 11 10 10 10 10 10 10 10 10 10 10 10
13 13 12 12 12 12 12 12 12 11 11 11 11 11 11 11 11 11 10 10 10 10 10 10 9 9 9 10 9 9 10 9 9 9 9 9 9 9
12 12 12 11 11 11 11 11 11 11 11 10 10 10 10 10 10 10 10 10 9 9 9 9 9 9 8 9 9 9 9 9 9 9 9 9 9 8
11 11 11 11 11 11 11 10 10 10 10 10 10 10 9 9 9 9 9 9 9 8 8 8 8 8 8 8 8 8 8 8 8 8 8 8 8 8
11 10 10 10 10 10 10 10 10 10 10 9 9 9 9 9 8 8 8 8 8 8 8 8 8 8 8 7 7 7 7 7 7 7 7 7 7 7
10 10 9 9 9 9 9 9 9 9 9 9 8 8 8 8 8 8 8 8 8 8 8 7 7 7 7 7 7 7 7 7 7 7 7 7 7 7
9 9 9 9 9 8 8 8 8 8 8 8 8 8 8 7 7 7 7 7 7 7 7 7 7 7 7 7 7 6 6 6 6 6 6 6 6 6
9 9 8 8 8 8 8 8 7 7 7 7 7 7 7 7 7 7 7 7 7 7 7 7 7 7 7 6 6 6 6 6 6 6 6 6 6 6
9 8 8 7 7 7 7 7 7 7 7 7 7 6 6 6 6 6 6 6 6 6 6 6 6 6 6 6 6 5 5 5 5 6 5 5 5 5
8 8 7 7 7 7 7 7 6 6 6 6 6 6 6 6 6 6 6 5 5 5 5 5 5 5 5 5 5 5 5 5 5 5 5 5 5 5
7 7 7 7 6 6 6 6 6 6 6 6 6 5 5 5 5 5 5 5 5 5 5 5 5 5 5 5 5 5 5 5 4 4 5 5 5 5
7 7 6 6 6 6 6 6 6 6 5 5 5 5 5 5 5 5 5 5 5 4 4 4 4 5 5 4 4 4 4 4 4 4 4 4 4 4
6 6 6 6 6 5 5 5 5 5 5 5 5 5 5 4 4 4 4 4 4 4 4 4 4 4 4 4 4 4 4 4 4 4 4 4 4 4
Wind_Speed
6 6 5 5 4 4 4 4 5 3 4 3 2 3 4 6 9 9 10 11 15 17 18 19 19 19 19 19 19 18 18 17 17 16 16 15 15 15
5 5 5 4 4 3 4 3 4 5 4 3 3 3 3 4 8 9 10 12 14 16 17 17 17 17 17 17 16 16 16 16 16 15 15 15 15 15
5 5 6 5 4 4 3 3 3 4 5 3 2 2 1 2 2 4 6 7 8 12 13 14 15 15 16 16 15 15 14 14 14 14 14 14 14 14
4 3 4 4 4 4 3 3 3 3 4 4 2 1 1 1 1 1 1 3 4 6 10 11 12 13 13 13 13 13 13 13 13 13 13 13 12 12
3 3 4 3 3 2 2 2 3 2 2 3 3 1 1 0 0 1 1 1 1 2 3 5 7 9 10 10 11 11 11 11 11 12 12 12 12 12
2 2 2 2 2 2 2 2 2 2 1 2 2 1 1 1 1 1 1 1 1 2 2 1 2 4 6 7 8 9 9 9 10 11 11 11 11 12
1 1 1 2 2 1 1 1 2 2 1 1 0 0 1 1 1 0 0 1 1 1 2 2 2 2 4 5 6 8 8 9 9 10 10 11 11 11
2 1 1 2 2 3 4 4 3 2 2 1 1 0 1 1 0 0 0 1 1 2 1 2 2 2 3 3 4 6 7 8 9 10 11 11 12 12
3 3 3 3 4 3 5 6 5 4 2 2 2 2 2 1 1 1 0 1 1 2 1 2 2 3 4 5 5 5 6 7 9 10 10 11 11 11
5 4 5 4 4 4 5 5 5 4 3 2 2 0 0 0 1 2 2 0 1 2 2 1 2 3 3 4 6 8 8 8 9 10 11 11 11 10
6 6 5 5 5 6 6 6 5 4 6 7 6 5 6 5 3 2 2 2 1 2 2 1 2 3 3 2 5 9 10 10 11 10 10 9 9 9
5 6 8 7 7 7 5 5 5 3 3 5 6 7 7 8 7 3 1 1 1 2 2 1 1 2 3 3 3 7 8 9 10 9 9 9 8 4
5 5 6 9 10 9 8 6 5 4 4 5 5 5 5 5 5 5 4 2 2 0 2 1 1 1 1 3 3 4 5 4 5 6 9 10 8 3
5 4 6 10 12 11 9 9 9 7 5 5 5 5 5 4 4 5 6 5 3 0 2 1 0 1 1 2 3 4 4 4 4 4 6 8 8 6
6 8 10 11 11 10 11 12 9 6 6 6 5 4 3 3 4 4 5 6 6 6 6 3 1 1 1 2 3 3 3 4 3 4 4 4 3 3
7 9 11 13 10 9 8 8 6 6 5 5 3 3 4 4 4 3 3 4 4 5 7 8 5 1 1 2 2 3 3 3 4 4 3 3 4 5
6 6 7 6 7 6 6 6 6 6 6 4 4 4 4 4 4 4 3 3 3 3 5 5 7 5 1 1 1 2 3 3 3 4 3 3 4 4
9 7 6 5 5 4 4 5 5 5 4 4 4 4 4 4 4 4 4 3 3 3 4 4 4 4 4 3 1 1 3 3 4 4 2 2 3 4
8 6 5 4 4 4 4 4 4 4 4 4 4 4 4 4 4 4 4 4 4 4 4 3 3 3 4 4 5 3 2 3 4 3 3 2 2 4
5 4 4 4 4 4 4 4 4 5 5 5 5 5 4 4 4 4 4 4 3 4 4 4 3 2 1 2 3 4 6 3 3 3 3 2 3 5
4 4 4 4 4 4 4 4 4 4 4 4 5 5 4 4 4 4 4 6 4 3 4 5 5 7 2 1 3 4 5 8 5 2 2 2 3 3
5 5 5 5 5 4 4 4 4 4 5 5 4 4 4 4 4 4 4 3 3 3 3 4 6 4 3 2 3 4 4 6 8 8 4 2 1 2
4 5 4 4 4 4 4 4 5 4 4 4 4 4 4 4 4 3 3 3 3 4 4 5 5 4 3 2 3 3 4 5 4 4 5 8 7 6
Wind_Direction
219 218 219 222 214 209 199 185 182 217 249 253 253 254 226 218 219 216 222 225 227 229 230 232 234 236 237 239 240 241 241 242 244 246 246 248 250 253
217 215 221 222 217 211 208 203 191 194 225 239 235 252 237 223 221 216 224 228 228 229 230 230 232 236 237 239 240 241 243 245 247 248 247 249 252 256
224 220 228 220 218 221 214 208 206 188 217 251 239 258 251 245 226 220 228 228 231 233 232 230 231 234 236 237 239 242 245 247 247 249 250 251 254 257
227 229 239 228 221 222 208 214 219 203 199 234 258 268 254 244 229 228 248 237 238 244 239 240 243 246 246 245 245 245 247 248 249 250 251 252 254 257
215 218 237 222 224 222 200 212 221 206 185 203 246 258 268 324 81 354 23 352 289 278 251 249 252 255 255 251 250 250 253 254 255 256 257 256 257 257
204 214 237 215 208 209 198 209 192 166 168 184 230 263 280 291 90 45 1 351 336 349 343 274 279 268 260 257 255 254 253 256 258 260 261 262 262 263
96 75 77 87 102 138 151 150 137 143 147 152 217 358 343 13 19 333 267 307 335 340 336 334 341 325 296 276 261 254 253 256 259 259 260 261 263 265
110 79 69 66 81 85 90 92 114 151 168 165 205 181 277 270 296 41 292 50 331 329 1 336 10 329 319 304 285 262 255 257 263 268 268 267 266 266
86 81 74 62 68 85 81 72 64 69 119 163 166 229 240 250 181 110 92 139 222 292 32 332 344 337 328 332 323 314 300 293 291 287 281 277 275 274
65 69 75 60 60 76 86 74 63 52 61 90 124 176 140 194 160 182 198 167 12 358 50 14 333 320 328 348 6 359 345 331 316 306 300 293 286 282
58 57 66 66 58 76 85 84 71 49 51 64 68 58 49 48 67 80 60 63 5 337 16 57 317 315 315 314 346 353 348 341 336 330 319 304 294 288
55 48 54 64 63 71 80 82 74 42 40 46 42 38 35 35 41 63 107 114 62 348 340 33 332 352 334 315 329 346 349 345 345 344 342 334 317 298
69 54 49 60 64 62 68 70 72 71 62 60 50 38 30 25 24 26 37 88 100 339 317 40 357 349 295 302 319 329 338 333 339 342 341 340 338 315
83 67 61 66 66 63 63 60 61 63 64 62 53 39 29 19 12 23 34 41 54 53 334 24 234 255 270 298 300 312 320 330 343 337 338 340 340 335
77 74 71 68 65 62 58 59 58 61 64 63 53 33 12 8 16 19 20 23 24 17 14 14 336 282 228 243 281 298 314 322 334 334 332 334 326 329
73 66 65 65 63 55 49 50 53 60 70 66 50 26 17 22 20 17 17 8 14 352 356 6 2 345 297 279 269 297 302 304 319 326 329 330 334 335
84 69 62 60 56 49 46 43 44 46 50 42 44 35 26 23 12 6 19 25 24 352 341 343 355 358 307 245 316 316 317 315 308 319 334 334 326 333
84 77 71 67 66 60 56 45 42 42 41 43 41 36 30 25 16 12 20 26 12 353 345 340 351 1 4 353 313 316 324 310 312 319 323 323 315 323
79 77 75 73 67 62 58 56 46 37 42 46 41 31 26 24 23 16 14 14 6 353 340 341 360 22 13 342 320 332 313 308 318 326 324 303 285 300
71 76 74 72 67 59 54 51 46 39 38 37 33 28 25 24 20 12 7 4 354 348 345 345 347 347 309 278 284 306 326 312 318 323 319 314 297 298
67 68 69 66 60 57 56 54 51 44 38 35 29 24 19 21 13 2 358 360 4 354 345 330 308 315 301 357 338 319 314 327 323 299 309 317 319 326
79 77 71 69 64 58 52 48 44 37 31 29 20 13 8 12 6 357 356 355 346 334 322 316 323 343 11 5 327 309 312 322 332 339 337 299 251 289
93 86 76 69 66 57 51 45 45 36 26 16 7 359 358 356 347 344 344 345 338 337 337 335 340 349 345 335 327 317 321 325 326 336 336 340 335 320
Height
1547 1548 1549 1550 1551 1551 1552 1552 1553 1552 1552 1552 1553 1554 1554 1554 1554 1555 1555 1555 1555 1555 1556 1556 1556 1556 1556 1556 1556 1556 1556 1556 1556 1556 1556 1556 1556 1556
1543 1544 1544 1545 1547 1547 1548 1548 1548 1549 1548 1549 1549 1550 1551 1551 1551 1551 1551 1551 1551 1551 1551 1551 1551 1551 1551 1551 1551 1551 1551 1551 1551 1551 1550 1550 1550 1550
1539 1540 1540 1541 1542 1543 1544 1544 1544 1545 1545 1545 1546 1546 1547 1547 1547 1547 1547 1546 1546 1547 1547 1547 1546 1546 1546 1546 1546 1546 1546 1545 1545 1545 1545 1545 1545 1545
1535 1535 1536 1537 1538 1538 1539 1540 1540 1541 1541 1541 1542 1542 1542 1542 1542 1542 1542 1542 1542 1542 1542 1542 1542 1541 1541 1541 1541 1540 1540 1540 1540 1539 1539 1539 1538 1538
1531 1531 1532 1533 1534 1534 1535 1535 1536 1536 1537 1537 1537 1538 1537 1538 1538 1538 1538 1538 1538 1538 1537 1537 1537 1536 1536 1536 1535 1535 1535 1534 1534 1534 1533 1533 1532 1532
1527 1528 1528 1529 1529 1530 1530 1531 1532 1532 1532 1533 1533 1533 1533 1534 1534 1534 1533 1534 1534 1534 1533 1533 1532 1532 1531 1531 1530 1530 1529 1529 1528 1528 1527 1527 1526 1526
1523 1524 1524 1525 1525 1526 1526 1527 1528 1528 1528 1529 1529 1529 1529 1529 1529 1529 1529 1529 1530 1530 1529 1528 1528 1527 1526 1526 1525 1525 1524 1524 1523 1523 1522 1522 1521 1520
1520 1521 1521 1521 1522 1522 1523 1523 1524 1524 1524 1525 1525 1525 1525 1526 1526 1526 1525 1525 1525 1526 1525 1525 1524 1523 1523 1522 1521 1520 1520 1519 1519 1518 1517 1516 1515 1514
1518 1518 1518 1518 1518 1519 1520 1520 1521 1521 1522 1523 1522 1522 1522 1522 1523 1522 1522 1522 1522 1522 1522 1521 1521 1520 1519 1519 1518 1517 1516 1515 1514 1513 1512 1511 1510 1509
1518 1517 1517 1518 1518 1518 1518 1518 1519 1519 1520 1520 1520 1520 1520 1520 1520 1520 1520 1520 1520 1519 1519 1518 1518 1517 1516 1516 1515 1514 1512 1511 1510 1509 1508 1507 1506 1505
1518 1518 1518 1518 1518 1518 1518 1517 1518 1518 1519 1519 1519 1519 1519 1518 1518 1518 1517 1517 1516 1516 1516 1516 1515 1514 1514 1513 1512 1510 1509 1508 1506 1505 1504 1503 1501 1500
1518 1519 1519 1518 1518 1518 1518 1518 1518 1518 1519 1519 1519 1519 1518 1517 1517 1516 1516 1515 1514 1514 1514 1514 1513 1512 1511 1510 1509 1508 1506 1504 1503 1502 1500 1499 1497 1495
1519 1519 1519 1520 1519 1519 1519 1519 1519 1519 1519 1519 1519 1518 1518 1517 1516 1515 1515 1514 1513 1513 1513 1512 1511 1510 1509 1508 1506 1505 1503 1501 1500 1498 1497 1495 1493 1492
1520 1520 1521 1521 1521 1521 1521 1521 1521 1520 1520 1520 1519 1519 1518 1517 1516 1516 1515 1514 1513 1513 1512 1511 1510 1509 1507 1505 1504 1502 1501 1499 1497 1495 1493 1491 1490 1488
1522 1522 1522 1522 1522 1521 1522 1522 1522 1521 1521 1520 1520 1519 1519 1518 1517 1516 1515 1515 1514 1513 1511 1510 1509 1507 1506 1504 1502 1500 1498 1496 1495 1492 1490 1488 1486 1484
1523 1524 1524 1524 1524 1524 1524 1523 1523 1522 1522 1521 1521 1521 1520 1519 1518 1517 1515 1514 1513 1512 1511 1509 1508 1506 1504 1502 1500 1499 1497 1495 1492 1490 1487 1485 1483 1481
1525 1525 1525 1525 1525 1525 1525 1525 1524 1523 1523 1523 1522 1521 1520 1519 1518 1517 1515 1514 1513 1511 1510 1508 1506 1505 1502 1501 1499 1497 1495 1493 1490 1488 1485 1482 1480 1478
1527 1527 1527 1527 1527 1527 1527 1526 1526 1525 1524 1524 1523 1522 1520 1519 1518 1517 1516 1514 1512 1511 1509 1507 1505 1502 1501 1499 1498 1495 1493 1490 1488 1486 1483 1480 1478 1476
1529 1529 1529 1530 1529 1529 1529 1528 1527 1526 1526 1524 1523 1522 1521 1520 1518 1517 1515 1514 1512 1511 1509 1506 1504 1501 1499 1497 1496 1494 1491 1488 1486 1484 1481 1479 1476 1474
1531 1531 1531 1531 1531 1530 1530 1529 1528 1527 1526 1525 1523 1522 1521 1520 1519 1517 1516 1514 1512 1510 1508 1506 1504 1501 1499 1497 1494 1493 1490 1487 1484 1482 1479 1477 1475 1473
1533 1533 1533 1533 1532 1531 1530 1530 1529 1527 1526 1525 1524 1523 1522 1520 1519 1517 1516 1514 1512 1510 1508 1505 1503 1501 1499 1497 1494 1491 1489 1487 1484 1481 1478 1476 1473 1471
1535 1534 1534 1533 1533 1532 1531 1530 1529 1528 1526 1525 1524 1523 1522 1520 1519 1517 1515 1513 1511 1509 1507 1505 1503 1500 1498 1495 1493 1490 1488 1486 1483 1481 1478 1476 1473 1470
1536 1535 1535 1534 1533 1532 1531 1530 1529 1527 1526 1525 1524 1523 1521 1520 1518 1516 1514 1512 1510 1508 1506 1504 1501 1499 1497 1495 1492 1490 1487 1484 1482 1479 1477 1475 1473 1471